FDX915 RPVI-RPVM

Flight info

Callsign FDX915
Flight time 0h 25m
Altitude 13000
Route BCD1N BCD DCT DELOR DELOR3P
Aircraft B738/M-SDE2E3FGHIRWXY/LB1

Departure

Time 2026-04-24 16:14
Airport Iloilo International Airport (RPVI)

Arrival

Time 2026-04-24 16:40
Airport Mactan Cebu International Airport (RPVM)
Time Latitude Longitude Altitude Speed Heading
2026-04-24 16:04 10.83019 122.49584 136 ft 0 kts 110°
2026-04-24 16:06 10.83024 122.49570 142 ft 2 kts 117°
2026-04-24 16:06 10.83045 122.49544 139 ft 2 kts 153°
2026-04-24 16:07 10.83061 122.49539 139 ft 2 kts 183°
2026-04-24 16:07 10.83075 122.49542 139 ft 1 kts 199°
2026-04-24 16:07 10.83077 122.49542 139 ft 0 kts 200°
2026-04-24 16:09 10.83075 122.49542 142 ft 2 kts 200°
2026-04-24 16:10 10.83060 122.49397 139 ft 21 kts 290°
2026-04-24 16:11 10.83005 122.49223 140 ft 13 kts 200°
2026-04-24 16:11 10.82910 122.49187 140 ft 18 kts 200°
2026-04-24 16:11 10.82762 122.49133 140 ft 27 kts 199°
2026-04-24 16:12 10.82333 122.48981 142 ft 32 kts 180°
2026-04-24 16:12 10.82261 122.48966 142 ft 0 kts 241°
2026-04-24 16:12 10.82294 122.48960 143 ft 6 kts 22°
2026-04-24 16:13 10.82303 122.48964 143 ft 0 kts 20°
2026-04-24 16:13 10.82314 122.48968 143 ft 10 kts 20°
2026-04-24 16:14 10.83508 122.49407 144 ft 165 kts 19°
2026-04-24 16:14 10.84627 122.49860 882 ft 174 kts 22°
2026-04-24 16:14 10.86900 122.50712 2499 ft 194 kts 22°
2026-04-24 16:15 10.87779 122.51028 2658 ft 210 kts 22°
2026-04-24 16:15 10.91359 122.52331 3312 ft 258 kts 22°
2026-04-24 16:16 10.93934 122.54719 4765 ft 262 kts 73°
2026-04-24 16:16 10.94084 122.56560 5508 ft 265 kts 98°
2026-04-24 16:17 10.92248 122.61995 7692 ft 277 kts 110°
2026-04-24 16:17 10.90851 122.65696 9127 ft 284 kts 110°
2026-04-24 16:18 10.89434 122.69512 10349 ft 298 kts 110°
2026-04-24 16:18 10.87927 122.73617 11303 ft 316 kts 110°
2026-04-24 16:18 10.87156 122.75720 11994 ft 318 kts 110°
2026-04-24 16:19 10.85595 122.79991 12928 ft 329 kts 110°
2026-04-24 16:19 10.84785 122.82206 12960 ft 348 kts 110°
2026-04-24 16:20 10.83070 122.86900 12949 ft 356 kts 110°
2026-04-24 16:20 10.81336 122.91641 12953 ft 357 kts 110°
2026-04-24 16:20 10.80471 122.94007 12948 ft 357 kts 110°
2026-04-24 16:21 10.78741 122.98735 12955 ft 356 kts 110°
2026-04-24 16:21 10.77878 123.01092 12955 ft 355 kts 110°
2026-04-24 16:21 10.77171 123.03494 12953 ft 355 kts 101°
2026-04-24 16:22 10.76761 123.05966 12958 ft 354 kts 97°
2026-04-24 16:22 10.76123 123.10940 12962 ft 355 kts 97°
2026-04-24 16:22 10.75783 123.13433 12966 ft 357 kts 98°
2026-04-24 16:23 10.75422 123.15929 12965 ft 357 kts 98°
2026-04-24 16:23 10.75049 123.18420 12957 ft 356 kts 98°
2026-04-24 16:23 10.74672 123.20903 12970 ft 355 kts 98°
2026-04-24 16:24 10.73547 123.25767 12964 ft 354 kts 118°
2026-04-24 16:24 10.72093 123.27725 12968 ft 343 kts 135°
2026-04-24 16:24 10.70379 123.29347 12956 ft 331 kts 137°
2026-04-24 16:24 10.68691 123.30874 12950 ft 320 kts 137°
2026-04-24 16:25 10.67037 123.32365 12947 ft 317 kts 137°
2026-04-24 16:25 10.65389 123.33864 12727 ft 317 kts 137°
2026-04-24 16:25 10.63753 123.35364 12488 ft 317 kts 137°
2026-04-24 16:26 10.60504 123.38367 11846 ft 314 kts 137°
2026-04-24 16:26 10.58893 123.39860 11525 ft 312 kts 137°
2026-04-24 16:26 10.55699 123.42819 10886 ft 309 kts 137°
2026-04-24 16:27 10.54113 123.44287 10576 ft 308 kts 137°
2026-04-24 16:27 10.52537 123.45747 10350 ft 303 kts 137°
2026-04-24 16:27 10.51003 123.47168 10223 ft 295 kts 136°
2026-04-24 16:27 10.49505 123.48554 10103 ft 287 kts 136°
2026-04-24 16:28 10.48045 123.49906 9898 ft 283 kts 136°
2026-04-24 16:28 10.46594 123.51250 9602 ft 282 kts 136°
2026-04-24 16:28 10.43711 123.53921 9011 ft 279 kts 136°
2026-04-24 16:29 10.42298 123.55229 8725 ft 278 kts 136°
2026-04-24 16:29 10.40872 123.56548 8454 ft 277 kts 136°
2026-04-24 16:29 10.38037 123.59173 7871 ft 275 kts 136°
2026-04-24 16:30 10.35225 123.61774 7308 ft 273 kts 136°
2026-04-24 16:30 10.33839 123.63083 7023 ft 271 kts 134°
2026-04-24 16:30 10.32503 123.64434 6757 ft 270 kts 133°
2026-04-24 16:31 10.31183 123.65791 6469 ft 270 kts 133°
2026-04-24 16:31 10.29869 123.67142 6187 ft 268 kts 134°
2026-04-24 16:31 10.28557 123.68485 5895 ft 268 kts 134°
2026-04-24 16:31 10.27245 123.69824 5613 ft 267 kts 134°
2026-04-24 16:32 10.26377 123.70708 5433 ft 267 kts 134°
2026-04-24 16:32 10.24635 123.72480 5125 ft 263 kts 134°
2026-04-24 16:32 10.23344 123.73792 4923 ft 257 kts 133°
2026-04-24 16:32 10.22113 123.75041 4870 ft 244 kts 133°
2026-04-24 16:33 10.20949 123.76224 4785 ft 229 kts 133°
2026-04-24 16:33 10.19858 123.77331 4674 ft 215 kts 133°
2026-04-24 16:33 10.18838 123.78366 4568 ft 200 kts 133°
2026-04-24 16:33 10.17891 123.79327 4311 ft 189 kts 133°
2026-04-24 16:34 10.16984 123.80247 4084 ft 180 kts 132°
2026-04-24 16:34 10.16172 123.81177 3878 ft 172 kts 113°
2026-04-24 16:34 10.16166 123.82331 3874 ft 172 kts 65°
2026-04-24 16:34 10.16790 123.83378 3684 ft 171 kts 57°
2026-04-24 16:35 10.17481 123.84313 3439 ft 158 kts 53°
2026-04-24 16:35 10.18151 123.85141 3278 ft 150 kts 51°
2026-04-24 16:35 10.18857 123.85927 3034 ft 149 kts 50°
2026-04-24 16:35 10.19571 123.86679 2833 ft 146 kts 49°
2026-04-24 16:36 10.20279 123.87408 2650 ft 144 kts 47°
2026-04-24 16:36 10.20989 123.88129 2456 ft 144 kts 47°
2026-04-24 16:36 10.21702 123.88849 2256 ft 145 kts 47°
2026-04-24 16:36 10.22420 123.89571 2072 ft 146 kts 47°
2026-04-24 16:37 10.23142 123.90298 1861 ft 146 kts 46°
2026-04-24 16:37 10.23853 123.91012 1688 ft 147 kts 47°
2026-04-24 16:37 10.24345 123.91507 1551 ft 148 kts 46°
2026-04-24 16:37 10.25302 123.92468 1291 ft 145 kts 46°
2026-04-24 16:38 10.26026 123.93194 1090 ft 145 kts 47°
2026-04-24 16:38 10.26742 123.93916 901 ft 146 kts 46°
2026-04-24 16:38 10.27459 123.94639 662 ft 141 kts 45°
2026-04-24 16:38 10.28137 123.95316 549 ft 138 kts 44°
2026-04-24 16:39 10.28842 123.96006 332 ft 143 kts 45°
2026-04-24 16:39 10.29555 123.96736 127 ft 147 kts 46°
2026-04-24 16:39 10.30270 123.97461 36 ft 136 kts 45°
2026-04-24 16:39 10.30782 123.97972 32 ft 50 kts 44°
2026-04-24 16:40 10.31023 123.98211 36 ft 45 kts 41°
2026-04-24 16:40 10.31253 123.98340 38 ft 29 kts 20°